This is the latest recevied weather packets stored in our database for station/object W0JRT-6. If no packets are shown the sender has not sent any weather packets the latest 10 day(s).
| Time | Temp. | Humidity | Pressure | Rain* | Wind** | Luminosity | Snow |
|---|---|---|---|---|---|---|---|
| 1777983604 | 10° C | 78% | 1008 hPa | 0.76 mm | - | - | - |
| 1777983000 | 10° C | 76% | 1007.9 hPa | 0.76 mm | - | - | - |
| 1777982402 | 10.56° C | 73% | 1007.7 hPa | 0.76 mm | - | - | - |
| 1777981797 | 11.11° C | 67% | 1007.4 hPa | 0.25 mm | - | - | - |
| 1777981208 | 11.67° C | 59% | 1006.9 hPa | 0 mm | - | - | - |
| 1777980001 | 12.22° C | 51% | 1007.3 hPa | 0 mm | - | - | - |
| 1777979399 | 12.22° C | 51% | 1006.4 hPa | 0 mm | - | - | - |
| 1777978802 | 12.78° C | 51% | 1007.2 hPa | 0 mm | - | - | - |
| 1777978207 | 12.78° C | 51% | 1006.6 hPa | 0 mm | - | - | - |
| 1777977604 | 12.78° C | 52% | 1006.2 hPa | 0 mm | - | - | - |
| 1777977005 | 12.78° C | 52% | 1006.1 hPa | 0 mm | - | - | - |
| 1777976398 | 12.78° C | 53% | 1006.2 hPa | 0 mm | - | - | - |
| 1777975798 | 12.78° C | 52% | 1006.3 hPa | 0 mm | - | - | - |
| 1777974598 | 12.78° C | 52% | 1006.9 hPa | 0 mm | - | - | - |
| 1777973402 | 12.78° C | 52% | 1006.9 hPa | 0 mm | - | - | - |
| 1777972799 | 13.33° C | 50% | 1006.6 hPa | 0 mm | - | - | - |
| 1777972200 | 13.33° C | 50% | 1006.4 hPa | 0 mm | - | - | - |
| 1777971604 | 13.33° C | 50% | 1005.7 hPa | 0 mm | - | - | - |
| 1777970997 | 13.33° C | 50% | 1005.6 hPa | 0 mm | - | - | - |
| 1777970399 | 13.33° C | 49% | 1005.2 hPa | 0 mm | - | - | - |
| 1777969205 | 13.33° C | 49% | 1004.6 hPa | 0 mm | - | - | - |
| 1777968605 | 13.33° C | 49% | 1004.3 hPa | 0 mm | - | - | - |
| 1777968008 | 13.33° C | 48% | 1004.6 hPa | 0 mm | - | - | - |
| 1777967402 | 13.89° C | 48% | 1005.6 hPa | 0 mm | - | - | - |
| 1777966808 | 13.33° C | - | 1006.2 hPa | 0 mm | - | - | - |
* Rain since midnight (hover to see other rain measurements)
** Current wind speed in m/s (hover to see current wind gust speed)